Agua de Oro, Argentina
Current Conditions -  °F | °C
As of 3:00 AM on Saturday 20 Dec 2014 (Local Time) from SACO Reporting Station
Clear Clear  
Wind Chill: 72°   Ceiling: Unl
Heat Index: 72°   Visibility: 6mi
Dew Point: 64°   Wind: 7mph
Humidity: 78%   Direction: 360°N
Pressure: 29.56"   Gusts: NA
Location:  31.07°S, 64.3°W
Report Text: SACO 200600Z 36006KT CAVOK 22/18 Q1001
Loading
Personal Weather Stations






























Interactive Weather Map New forecast layout! Learn more

10-Day Weather Forecast

Advertisements
Track Severe Weather on mobile